Home > Weather > Wilmington > Past weeks

Flag for USA Past Weather in Wilmington, Delaware, USA — Yesterday and Last 2 Weeks

Now
91 °F

Scattered clouds.


Feels Like: 97 °F
Forecast: 76 / 91 °F
Wind: 12 mph from Northwest

Location: New Castle County Airport

Current Time: Aug 26, 2016 at 2:45:48 PM

Latest Report: Aug 26, 2016 at 1:51 PM


Visibility: 10 mi

Pressure: 30.03 "Hg

Humidity: 50%

Dew Point: 70 °F

Location of WilmingtonLocation

Past Weather in Wilmington — Graph

°F

Wilmington Temperature Yesterday

Maximum temperature yesterday: 84 °F (at 1:51 PM)
Minimum temperature yesterday: 68 °F (at 2:51 AM)
Average temperature yesterday: 77 °F

High & Low Weather Summary for the Past Weeks

 TemperatureHumidityPressure
High96 °F (Aug 14, 2:51 PM)94% (Aug 16, 12:51 AM)30.35 "Hg (Aug 16, 12:51 AM)
Low57 °F (Aug 23, 5:51 AM)36% (Aug 23, 11:51 AM)29.77 "Hg (Aug 21, 4:51 PM)
Average80 °F69%30.03 "Hg
* Reported Aug 11 1:51 PM — Aug 26 1:51 PM, Wilmington, Weather by CustomWeather, © 2016

Note: Actual official high and low records may vary slightly from our data, if they occured in-between our weather recording intervals... More about our weather records

Advertising

Wilmington Weather History for the Previous 24 Hours

Scroll right to see more
 ConditionsComfort  
Time TempWeatherWind HumidityBarometerVisibility
1:51 PM
Fri, Aug 26
91 °FScattered clouds.12 mph50%30.03 "Hg10 mi
12:51 PM89 °FPartly sunny.15 mph53%30.03 "Hg10 mi
11:51 AM90 °FPassing clouds.9 mph52%30.03 "Hg10 mi
10:51 AM89 °FPassing clouds.15 mph55%30.03 "Hg10 mi
9:51 AM86 °FPassing clouds.10 mph67%30.03 "Hg10 mi
8:51 AM83 °FSunny.5 mph77%30.03 "Hg10 mi
7:51 AM78 °FPassing clouds.5 mph87%30.03 "Hg10 mi
6:51 AM75 °FPassing clouds.No wind90%30.03 "Hg10 mi
5:51 AM74 °FPassing clouds.No wind91%30.01 "Hg10 mi
4:51 AM74 °FPassing clouds.3 mph88%30.00 "Hg10 mi
3:51 AM74 °FPassing clouds.No wind88%30.00 "Hg10 mi
2:51 AM74 °FClear.3 mph85%30.01 "Hg10 mi
1:51 AM75 °FClear.5 mph82%30.00 "Hg10 mi
11:51 PM
Thu, Aug 25
76 °FClear.3 mph80%30.02 "Hg10 mi
10:51 PM78 °FClear.6 mph76%30.02 "Hg10 mi
9:51 PM79 °FClear.6 mph77%30.03 "Hg10 mi
8:51 PM80 °FClear.6 mph74%30.03 "Hg10 mi
7:51 PM81 °FSunny.6 mph72%30.02 "Hg10 mi
6:51 PM83 °FOvercast.8 mph65%30.02 "Hg10 mi
5:51 PM84 °FPassing clouds.12 mph63%30.02 "Hg10 mi
4:51 PM84 °FScattered clouds.9 mph65%30.03 "Hg10 mi
3:51 PM84 °FMostly cloudy.12 mph65%30.03 "Hg10 mi
2:51 PM84 °FOvercast.13 mph61%30.04 "Hg10 mi
Weather by CustomWeather, © 2016

See weather overviewHow to use our weather pages